Time,TemperatureF,DewpointF,PressureIn,WindDirection,WindDirectionDegrees,WindSpeedMPH,WindSpeedGustMPH,Humidity,HourlyPrecipIn,Conditions,Clouds,dailyrainin,SoftwareType,DateUTC
2013-04-25 00:01:00,27.7,22.9,29.80,SSW,202,0.0,0.0,82,0.00,,,0.00,WUHU21623XXSP,2013-04-25 05:01:00,
2013-04-25 00:06:00,27.7,22.9,29.81,SSW,202,0.0,0.0,82,0.00,,,0.00,WUHU21623XXSP,2013-04-25 05:06:00,
2013-04-25 00:11:00,27.3,22.8,29.81,SSW,202,0.0,0.0,83,0.00,,,0.00,WUHU21623XXSP,2013-04-25 05:11:00,
2013-04-25 00:16:00,27.1,22.6,29.81,SSW,202,0.0,0.0,83,0.00,,,0.00,WUHU21623XXSP,2013-04-25 05:16:00,
2013-04-25 00:21:00,27.1,22.6,29.81,SSW,202,0.0,0.0,83,0.00,,,0.00,WUHU21623XXSP,2013-04-25 05:21:00,
2013-04-25 00:26:00,27.0,22.4,29.81,SSW,202,0.0,0.0,83,0.00,,,0.00,WUHU21623XXSP,2013-04-25 05:26:00,
2013-04-25 00:31:00,26.8,22.5,29.81,SSW,202,0.0,0.0,84,0.00,,,0.00,WUHU21623XXSP,2013-04-25 05:31:00,
2013-04-25 00:36:00,27.1,22.9,29.81,WSW,247,0.0,0.0,84,0.00,,,0.00,WUHU21623XXSP,2013-04-25 05:36:00,
2013-04-25 00:41:00,27.0,22.7,29.81,WSW,247,0.0,0.0,84,0.00,,,0.00,WUHU21623XXSP,2013-04-25 05:41:00,
2013-04-25 00:46:00,26.8,22.2,29.81,West,270,0.1,0.7,83,0.00,,,0.00,WUHU21623XXSP,2013-04-25 05:46:00,
2013-04-25 00:51:00,26.4,22.2,29.81,West,270,0.0,0.7,84,0.00,,,0.00,WUHU21623XXSP,2013-04-25 05:51:00,
2013-04-25 00:56:00,26.2,22.0,29.81,West,270,0.0,0.0,84,0.00,,,0.00,WUHU21623XXSP,2013-04-25 05:56:00,
2013-04-25 01:01:00,25.5,21.1,29.82,West,270,0.0,0.0,83,0.00,,,0.00,WUHU21623XXSP,2013-04-25 06:01:00,
2013-04-25 01:06:00,25.3,21.2,29.82,West,270,0.0,0.0,84,0.00,,,0.00,WUHU21623XXSP,2013-04-25 06:06:00,
2013-04-25 01:11:00,25.9,21.7,29.82,West,270,0.0,0.0,84,0.00,,,0.00,WUHU21623XXSP,2013-04-25 06:11:00,
2013-04-25 01:16:00,26.1,21.8,29.82,West,270,0.0,0.0,84,0.00,,,0.00,WUHU21623XXSP,2013-04-25 06:16:00,
2013-04-25 01:21:00,25.9,21.7,29.82,West,270,0.0,0.0,84,0.00,,,0.00,WUHU21623XXSP,2013-04-25 06:21:00,
2013-04-25 01:26:00,25.5,21.3,29.82,West,270,0.0,0.0,84,0.00,,,0.00,WUHU21623XXSP,2013-04-25 06:26:00,
2013-04-25 01:31:00,26.1,21.8,29.82,West,270,0.0,0.0,84,0.00,,,0.00,WUHU21623XXSP,2013-04-25 06:31:00,
2013-04-25 01:36:00,26.1,21.8,29.82,West,270,0.0,0.0,84,0.00,,,0.00,WUHU21623XXSP,2013-04-25 06:36:00,
2013-04-25 01:41:00,25.7,21.5,29.82,West,270,0.1,0.9,84,0.00,,,0.00,WUHU21623XXSP,2013-04-25 06:41:00,
2013-04-25 01:46:00,25.5,21.3,29.83,West,270,0.0,0.9,84,0.00,,,0.00,WUHU21623XXSP,2013-04-25 06:46:00,
2013-04-25 01:51:00,25.0,20.8,29.83,West,270,0.0,0.0,84,0.00,,,0.00,WUHU21623XXSP,2013-04-25 06:51:00,
2013-04-25 01:56:00,25.5,21.6,29.83,West,270,0.0,0.0,85,0.00,,,0.00,WUHU21623XXSP,2013-04-25 06:56:00,
2013-04-25 02:01:00,26.2,22.0,29.83,West,270,0.0,0.0,84,0.00,,,0.00,WUHU21623XXSP,2013-04-25 07:01:00,
2013-04-25 02:06:00,26.4,22.2,29.83,West,270,0.0,0.9,84,0.00,,,0.00,WUHU21623XXSP,2013-04-25 07:06:00,
2013-04-25 02:11:00,26.4,22.2,29.83,West,270,0.0,0.9,84,0.00,,,0.00,WUHU21623XXSP,2013-04-25 07:11:00,
2013-04-25 02:16:00,26.4,22.2,29.83,West,270,0.0,0.0,84,0.00,,,0.00,WUHU21623XXSP,2013-04-25 07:16:00,
2013-04-25 02:21:00,26.2,22.0,29.83,West,270,0.0,1.1,84,0.00,,,0.00,WUHU21623XXSP,2013-04-25 07:21:00,
2013-04-25 02:26:00,25.9,21.7,29.83,West,270,0.0,1.1,84,0.00,,,0.00,WUHU21623XXSP,2013-04-25 07:26:00,
2013-04-25 02:31:00,25.9,21.7,29.83,West,270,0.0,0.0,84,0.00,,,0.00,WUHU21623XXSP,2013-04-25 07:31:00,
2013-04-25 02:36:00,26.1,21.8,29.83,West,270,0.1,0.7,84,0.00,,,0.00,WUHU21623XXSP,2013-04-25 07:36:00,
2013-04-25 02:41:00,25.9,21.7,29.83,West,270,0.0,0.7,84,0.00,,,0.00,WUHU21623XXSP,2013-04-25 07:41:00,
2013-04-25 02:46:00,25.7,21.5,29.84,West,270,0.0,0.7,84,0.00,,,0.00,WUHU21623XXSP,2013-04-25 07:46:00,
2013-04-25 02:51:00,25.5,21.3,29.84,West,270,0.1,0.7,84,0.00,,,0.00,WUHU21623XXSP,2013-04-25 07:51:00,
2013-04-25 02:56:00,25.3,21.2,29.84,West,270,0.1,0.7,84,0.00,,,0.00,WUHU21623XXSP,2013-04-25 07:56:00,
2013-04-25 03:01:00,25.3,21.2,29.84,West,270,0.0,0.7,84,0.00,,,0.00,WUHU21623XXSP,2013-04-25 08:01:00,
2013-04-25 03:06:00,25.5,21.3,29.84,West,277,0.8,2.9,84,0.00,,,0.00,WUHU21623XXSP,2013-04-25 08:06:00,
2013-04-25 03:11:00,25.5,21.3,29.84,WNW,285,1.0,3.1,84,0.00,,,0.00,WUHU21623XXSP,2013-04-25 08:11:00,
2013-04-25 03:16:00,25.7,21.8,29.84,WNW,297,0.5,3.6,85,0.00,,,0.00,WUHU21623XXSP,2013-04-25 08:16:00,
2013-04-25 03:21:00,26.1,22.1,29.84,WNW,292,0.2,3.6,85,0.00,,,0.00,WUHU21623XXSP,2013-04-25 08:21:00,
2013-04-25 03:26:00,26.2,22.3,29.84,West,270,0.4,2.0,85,0.00,,,0.00,WUHU21623XXSP,2013-04-25 08:26:00,
2013-04-25 03:31:00,26.2,22.3,29.84,West,270,0.2,2.0,85,0.00,,,0.00,WUHU21623XXSP,2013-04-25 08:31:00,
2013-04-25 03:36:00,26.2,22.6,29.84,West,270,0.0,1.1,86,0.00,,,0.00,WUHU21623XXSP,2013-04-25 08:36:00,
2013-04-25 03:41:00,26.4,22.7,29.84,West,270,0.0,0.0,86,0.00,,,0.00,WUHU21623XXSP,2013-04-25 08:41:00,
2013-04-25 03:46:00,26.4,22.7,29.84,West,270,0.0,0.0,86,0.00,,,0.00,WUHU21623XXSP,2013-04-25 08:46:00,
2013-04-25 03:51:00,26.4,22.7,29.84,West,270,0.0,0.9,86,0.00,,,0.00,WUHU21623XXSP,2013-04-25 08:51:00,
2013-04-25 03:56:00,26.8,23.1,29.84,West,270,0.0,0.9,86,0.00,,,0.00,WUHU21623XXSP,2013-04-25 08:56:00,
2013-04-25 04:01:00,26.6,22.9,29.84,West,270,0.0,0.0,86,0.00,,,0.00,WUHU21623XXSP,2013-04-25 09:01:00,
2013-04-25 04:06:00,26.8,23.1,29.85,West,270,0.0,0.0,86,0.00,,,0.00,WUHU21623XXSP,2013-04-25 09:06:00,
2013-04-25 04:11:00,26.6,22.9,29.85,West,270,0.0,0.0,86,0.00,,,0.00,WUHU21623XXSP,2013-04-25 09:11:00,
2013-04-25 04:16:00,26.2,22.6,29.85,West,270,0.0,0.0,86,0.00,,,0.00,WUHU21623XXSP,2013-04-25 09:16:00,
2013-04-25 04:21:00,26.2,22.6,29.85,West,270,0.0,0.0,86,0.00,,,0.00,WUHU21623XXSP,2013-04-25 09:21:00,
2013-04-25 04:26:00,25.9,22.2,29.85,West,270,0.0,0.0,86,0.00,,,0.00,WUHU21623XXSP,2013-04-25 09:26:00,
2013-04-25 04:31:00,25.5,21.9,29.85,West,270,0.0,0.0,86,0.00,,,0.00,WUHU21623XXSP,2013-04-25 09:31:00,
2013-04-25 04:36:00,25.3,21.7,29.85,West,270,0.0,0.0,86,0.00,,,0.00,WUHU21623XXSP,2013-04-25 09:36:00,
2013-04-25 04:41:00,25.3,21.7,29.86,West,270,0.0,0.0,86,0.00,,,0.00,WUHU21623XXSP,2013-04-25 09:41:00,
2013-04-25 04:46:00,25.0,21.1,29.86,West,270,0.0,0.0,85,0.00,,,0.00,WUHU21623XXSP,2013-04-25 09:46:00,
2013-04-25 04:51:00,25.2,21.5,29.86,West,270,0.0,0.0,86,0.00,,,0.00,WUHU21623XXSP,2013-04-25 09:51:00,
2013-04-25 04:56:00,25.0,21.4,29.86,West,270,0.0,0.0,86,0.00,,,0.00,WUHU21623XXSP,2013-04-25 09:56:00,
2013-04-25 05:01:00,25.5,21.9,29.86,West,270,0.0,0.0,86,0.00,,,0.00,WUHU21623XXSP,2013-04-25 10:01:00,
2013-04-25 05:06:00,25.5,21.9,29.87,West,270,0.0,0.0,86,0.00,,,0.00,WUHU21623XXSP,2013-04-25 10:06:00,
2013-04-25 05:11:00,25.7,22.1,29.87,West,270,0.0,0.0,86,0.00,,,0.00,WUHU21623XXSP,2013-04-25 10:11:00,
2013-04-25 05:15:00,25.9,22.2,29.87,West,270,0.0,0.0,86,0.00,,,0.00,WUHU21623XXSP,2013-04-25 10:15:00,
2013-04-25 05:20:00,25.7,22.1,29.87,West,270,0.0,0.0,86,0.00,,,0.00,WUHU21623XXSP,2013-04-25 10:20:00,
2013-04-25 05:25:00,25.5,21.9,29.87,West,270,0.0,0.0,86,0.00,,,0.00,WUHU21623XXSP,2013-04-25 10:25:00,
2013-04-25 05:30:00,25.7,22.1,29.87,West,270,0.0,0.0,86,0.00,,,0.00,WUHU21623XXSP,2013-04-25 10:30:00,
2013-04-25 05:35:00,25.7,22.1,29.88,West,270,0.0,0.0,86,0.00,,,0.00,WUHU21623XXSP,2013-04-25 10:35:00,
2013-04-25 05:40:00,25.9,22.2,29.88,West,270,0.0,0.0,86,0.00,,,0.00,WUHU21623XXSP,2013-04-25 10:40:00,
2013-04-25 05:45:00,26.1,22.4,29.88,West,270,0.0,0.0,86,0.00,,,0.00,WUHU21623XXSP,2013-04-25 10:45:00,
2013-04-25 05:50:00,26.1,22.4,29.88,West,270,0.0,0.0,86,0.00,,,0.00,WUHU21623XXSP,2013-04-25 10:50:00,
2013-04-25 05:55:00,26.2,22.6,29.88,West,270,0.0,0.0,86,0.00,,,0.00,WUHU21623XXSP,2013-04-25 10:55:00,
2013-04-25 06:00:00,26.1,22.4,29.88,West,270,0.0,0.0,86,0.00,,,0.00,WUHU21623XXSP,2013-04-25 11:00:00,
2013-04-25 06:05:00,26.2,22.6,29.88,WNW,292,0.0,0.0,86,0.00,,,0.00,WUHU21623XXSP,2013-04-25 11:05:00,
2013-04-25 06:10:00,26.4,22.7,29.88,WNW,292,0.0,0.0,86,0.00,,,0.00,WUHU21623XXSP,2013-04-25 11:10:00,
2013-04-25 06:15:00,26.4,22.7,29.88,WNW,292,0.7,1.1,86,0.00,,,0.00,WUHU21623XXSP,2013-04-25 11:15:00,
2013-04-25 06:20:00,26.6,22.9,29.88,West,270,1.6,1.6,86,0.00,,,0.00,WUHU21623XXSP,2013-04-25 11:20:00,
2013-04-25 06:25:00,26.8,23.1,29.88,WNW,292,0.0,1.6,86,0.00,,,0.00,WUHU21623XXSP,2013-04-25 11:25:00,
2013-04-25 06:30:00,27.1,23.5,29.89,WNW,292,0.1,2.0,86,0.00,,,0.00,WUHU21623XXSP,2013-04-25 11:30:00,
2013-04-25 06:35:00,27.1,23.5,29.89,West,270,1.8,2.0,86,0.00,,,0.00,WUHU21623XXSP,2013-04-25 11:35:00,
2013-04-25 06:40:00,27.1,23.5,29.89,WNW,292,3.6,3.6,86,0.00,,,0.00,WUHU21623XXSP,2013-04-25 11:40:00,
2013-04-25 06:45:00,27.5,23.8,29.89,WNW,292,0.2,3.6,86,0.00,,,0.00,WUHU21623XXSP,2013-04-25 11:45:00,
2013-04-25 06:50:00,27.7,24.0,29.89,NW,315,2.0,4.7,86,0.00,,,0.00,WUHU21623XXSP,2013-04-25 11:50:00,
2013-04-25 06:55:00,27.7,24.0,29.89,West,270,3.4,4.7,86,0.00,,,0.00,WUHU21623XXSP,2013-04-25 11:55:00,
2013-04-25 07:00:00,27.7,24.0,29.90,WNW,292,3.1,3.4,86,0.00,,,0.00,WUHU21623XXSP,2013-04-25 12:00:00,
2013-04-25 07:05:00,28.0,24.4,29.90,West,278,0.5,4.9,86,0.00,,,0.00,WUHU21623XXSP,2013-04-25 12:05:00,
2013-04-25 07:10:00,28.2,24.5,29.90,WNW,299,0.5,4.9,86,0.00,,,0.00,WUHU21623XXSP,2013-04-25 12:10:00,
2013-04-25 07:15:00,28.6,24.6,29.90,NW,315,2.2,3.8,85,0.00,,,0.00,WUHU21623XXSP,2013-04-25 12:15:00,
2013-04-25 07:20:00,28.8,24.8,29.90,WNW,295,1.0,3.8,85,0.00,,,0.00,WUHU21623XXSP,2013-04-25 12:20:00,
2013-04-25 07:25:00,28.9,25.0,29.91,West,270,1.6,4.7,85,0.00,,,0.00,WUHU21623XXSP,2013-04-25 12:25:00,
2013-04-25 07:30:00,28.9,25.0,29.91,West,270,0.0,4.7,85,0.00,,,0.00,WUHU21623XXSP,2013-04-25 12:30:00,
2013-04-25 07:35:00,28.9,25.0,29.91,West,270,1.1,4.9,85,0.00,,,0.00,WUHU21623XXSP,2013-04-25 12:35:00,
2013-04-25 07:40:00,29.1,25.2,29.91,WNW,292,0.9,4.9,85,0.00,,,0.00,WUHU21623XXSP,2013-04-25 12:40:00,
2013-04-25 07:45:00,29.1,25.2,29.91,West,270,0.3,4.0,85,0.00,,,0.00,WUHU21623XXSP,2013-04-25 12:45:00,
2013-04-25 07:50:00,29.1,25.2,29.91,WNW,300,0.4,3.4,85,0.00,,,0.00,WUHU21623XXSP,2013-04-25 12:50:00,
2013-04-25 07:55:00,29.1,25.2,29.91,West,272,0.3,4.0,85,0.00,,,0.00,WUHU21623XXSP,2013-04-25 12:55:00,
2013-04-25 08:00:00,29.1,25.2,29.91,West,259,1.1,4.0,85,0.00,,,0.00,WUHU21623XXSP,2013-04-25 13:00:00,
2013-04-25 08:05:00,29.5,25.5,29.92,West,270,0.4,5.1,85,0.00,,,0.00,WUHU21623XXSP,2013-04-25 13:05:00,
2013-04-25 08:10:00,29.7,25.7,29.92,WNW,292,0.9,5.1,85,0.00,,,0.00,WUHU21623XXSP,2013-04-25 13:10:00,
2013-04-25 08:15:00,30.0,25.8,29.92,WNW,292,0.1,2.7,84,0.00,,,0.00,WUHU21623XXSP,2013-04-25 13:15:00,
2013-04-25 08:20:00,30.0,25.8,29.93,West,270,1.1,4.0,84,0.00,,,0.00,WUHU21623XXSP,2013-04-25 13:20:00,
2013-04-25 08:25:00,30.0,25.8,29.93,West,281,2.0,4.9,84,0.00,,,0.00,WUHU21623XXSP,2013-04-25 13:25:00,
2013-04-25 08:30:00,30.0,25.8,29.93,WSW,258,2.3,7.2,84,0.00,,,0.00,WUHU21623XXSP,2013-04-25 13:30:00,
2013-04-25 08:35:00,30.0,25.8,29.93,West,270,0.6,7.2,84,0.00,,,0.00,WUHU21623XXSP,2013-04-25 13:35:00,
2013-04-25 08:40:00,30.0,25.8,29.93,West,278,1.4,5.6,84,0.00,,,0.00,WUHU21623XXSP,2013-04-25 13:40:00,
2013-04-25 08:45:00,30.2,25.7,29.93,WNW,302,1.9,5.1,83,0.00,,,0.00,WUHU21623XXSP,2013-04-25 13:45:00,
2013-04-25 08:50:00,30.4,25.8,29.94,West,270,2.2,5.1,83,0.00,,,0.00,WUHU21623XXSP,2013-04-25 13:50:00,
2013-04-25 08:55:00,30.6,26.0,29.93,WNW,294,2.1,5.8,83,0.00,,,0.00,WUHU21623XXSP,2013-04-25 13:55:00,
2013-04-25 09:00:00,30.7,25.9,29.93,WNW,292,3.8,5.8,82,0.00,,,0.00,WUHU21623XXSP,2013-04-25 14:00:00,
2013-04-25 09:05:00,30.9,25.8,29.93,West,270,3.4,6.5,81,0.00,,,0.00,WUHU21623XXSP,2013-04-25 14:05:00,
2013-04-25 09:10:00,31.3,25.6,29.94,WSW,247,7.6,8.1,79,0.00,,,0.00,WUHU21623XXSP,2013-04-25 14:10:00,
2013-04-25 09:15:00,32.2,26.4,29.93,NNW,337,5.1,8.1,79,0.00,,,0.00,WUHU21623XXSP,2013-04-25 14:15:00,
2013-04-25 09:20:00,34.2,27.3,29.93,WNW,292,4.3,7.8,76,0.00,,,0.00,WUHU21623XXSP,2013-04-25 14:20:00,
2013-04-25 09:25:00,34.3,27.1,29.94,WNW,292,3.8,8.3,75,0.00,,,0.00,WUHU21623XXSP,2013-04-25 14:25:00,
2013-04-25 09:30:00,34.2,26.3,29.93,West,271,3.0,8.3,73,0.00,,,0.00,WUHU21623XXSP,2013-04-25 14:30:00,
2013-04-25 09:35:00,33.6,26.1,29.94,West,270,4.3,5.1,74,0.00,,,0.00,WUHU21623XXSP,2013-04-25 14:35:00,
2013-04-25 09:40:00,34.0,26.1,29.94,WNW,294,3.2,8.9,73,0.00,,,0.00,WUHU21623XXSP,2013-04-25 14:40:00,
2013-04-25 09:45:00,33.4,26.0,29.94,West,274,2.7,8.9,74,0.00,,,0.00,WUHU21623XXSP,2013-04-25 14:45:00,
2013-04-25 09:50:00,33.6,26.4,29.94,West,273,4.6,7.6,75,0.00,,,0.00,WUHU21623XXSP,2013-04-25 14:50:00,
2013-04-25 09:55:00,34.3,26.5,29.94,West,270,2.7,6.5,73,0.00,,,0.00,WUHU21623XXSP,2013-04-25 14:55:00,
2013-04-25 10:00:00,34.3,27.1,29.95,West,270,3.4,5.4,75,0.00,,,0.00,WUHU21623XXSP,2013-04-25 15:00:00,
2013-04-25 10:05:00,34.5,26.0,29.95,WNW,292,6.1,8.9,71,0.00,,,0.00,WUHU21623XXSP,2013-04-25 15:05:00,
2013-04-25 10:10:00,34.3,26.2,29.95,WSW,247,5.1,8.9,72,0.00,,,0.00,WUHU21623XXSP,2013-04-25 15:10:00,
2013-04-25 10:15:00,33.6,26.1,29.96,West,270,3.1,6.7,74,0.00,,,0.00,WUHU21623XXSP,2013-04-25 15:15:00,
2013-04-25 10:20:00,34.0,26.5,29.95,West,266,3.3,5.8,74,0.00,,,0.00,WUHU21623XXSP,2013-04-25 15:20:00,
2013-04-25 10:25:00,34.3,26.5,29.96,WNW,292,3.8,5.8,73,0.00,,,0.00,WUHU21623XXSP,2013-04-25 15:25:00,
2013-04-25 10:30:00,35.8,27.3,29.96,West,270,7.4,7.6,71,0.00,,,0.00,WUHU21623XXSP,2013-04-25 15:30:00,
2013-04-25 10:35:00,36.3,26.8,29.96,West,270,3.4,7.6,68,0.00,,,0.00,WUHU21623XXSP,2013-04-25 15:35:00,
2013-04-25 10:40:00,35.4,26.6,29.96,WSW,247,3.4,8.9,70,0.00,,,0.00,WUHU21623XXSP,2013-04-25 15:40:00,
2013-04-25 10:45:00,36.5,26.2,29.96,WSW,253,3.5,8.9,66,0.00,,,0.00,WUHU21623XXSP,2013-04-25 15:45:00,
2013-04-25 10:50:00,36.5,26.6,29.96,West,275,4.1,7.2,67,0.00,,,0.00,WUHU21623XXSP,2013-04-25 15:50:00,
2013-04-25 10:55:00,36.5,26.6,29.96,WSW,247,5.6,8.5,67,0.00,,,0.00,WUHU21623XXSP,2013-04-25 15:55:00,
2013-04-25 11:00:00,37.0,27.1,29.96,WNW,301,2.1,8.5,67,0.00,,,0.00,WUHU21623XXSP,2013-04-25 16:00:00,
2013-04-25 11:05:00,36.9,27.3,29.97,WSW,247,3.8,6.7,68,0.00,,,0.00,WUHU21623XXSP,2013-04-25 16:05:00,
2013-04-25 11:10:00,37.0,27.1,29.97,West,270,5.8,8.9,67,0.00,,,0.00,WUHU21623XXSP,2013-04-25 16:10:00,
2013-04-25 11:15:00,38.3,27.5,29.97,West,275,3.6,8.9,65,0.00,,,0.00,WUHU21623XXSP,2013-04-25 16:15:00,
2013-04-25 11:20:00,39.0,27.4,29.97,West,270,5.2,8.5,63,0.00,,,0.00,WUHU21623XXSP,2013-04-25 16:20:00,
2013-04-25 11:25:00,38.5,26.9,29.97,West,271,3.3,8.5,63,0.00,,,0.00,WUHU21623XXSP,2013-04-25 16:25:00,
2013-04-25 11:30:00,39.7,27.3,29.97,WNW,288,4.0,7.2,61,0.00,,,0.00,WUHU21623XXSP,2013-04-25 16:30:00,
2013-04-25 11:35:00,39.0,27.0,29.97,SW,225,3.1,8.5,62,0.00,,,0.00,WUHU21623XXSP,2013-04-25 16:35:00,
2013-04-25 11:40:00,39.0,26.6,29.97,West,281,4.1,8.5,61,0.00,,,0.00,WUHU21623XXSP,2013-04-25 16:40:00,
2013-04-25 11:45:00,39.0,26.6,29.97,WSW,257,4.1,8.3,61,0.00,,,0.00,WUHU21623XXSP,2013-04-25 16:45:00,
2013-04-25 11:50:00,39.9,27.1,29.97,West,274,3.2,8.3,60,0.00,,,0.00,WUHU21623XXSP,2013-04-25 16:50:00,
2013-04-25 11:55:00,40.8,27.1,29.97,WSW,247,4.5,8.3,58,0.00,,,0.00,WUHU21623XXSP,2013-04-25 16:55:00,
2013-04-25 12:00:00,40.8,26.2,29.97,SSW,202,3.8,7.8,56,0.00,,,0.00,WUHU21623XXSP,2013-04-25 17:00:00,
2013-04-25 12:05:00,40.8,27.1,29.97,WSW,256,3.9,7.4,58,0.00,,,0.00,WUHU21623XXSP,2013-04-25 17:05:00,
2013-04-25 12:10:00,41.5,26.9,29.97,WSW,247,6.3,9.8,56,0.00,,,0.00,WUHU21623XXSP,2013-04-25 17:10:00,
2013-04-25 12:15:00,41.2,26.6,29.97,West,272,3.0,9.8,56,0.00,,,0.00,WUHU21623XXSP,2013-04-25 17:15:00,
2013-04-25 12:20:00,41.7,25.8,29.98,West,270,6.3,7.8,53,0.00,,,0.00,WUHU21623XXSP,2013-04-25 17:20:00,
2013-04-25 12:25:00,40.3,25.3,29.97,WNW,286,5.0,8.3,55,0.00,,,0.00,WUHU21623XXSP,2013-04-25 17:25:00,
2013-04-25 12:30:00,40.8,25.8,29.97,NW,315,4.3,8.3,55,0.00,,,0.00,WUHU21623XXSP,2013-04-25 17:30:00,
2013-04-25 12:35:00,39.7,24.3,29.97,West,263,5.4,10.1,54,0.00,,,0.00,WUHU21623XXSP,2013-04-25 17:35:00,
2013-04-25 12:40:00,39.9,24.9,29.97,West,265,4.4,12.3,55,0.00,,,0.00,WUHU21623XXSP,2013-04-25 17:40:00,
2013-04-25 12:45:00,39.9,25.4,29.97,West,270,3.1,12.3,56,0.00,,,0.00,WUHU21623XXSP,2013-04-25 17:45:00,
2013-04-25 12:50:00,40.1,25.6,29.97,WSW,247,4.7,10.1,56,0.00,,,0.00,WUHU21623XXSP,2013-04-25 17:50:00,
2013-04-25 12:55:00,39.2,25.1,29.97,WSW,247,3.8,8.3,57,0.00,,,0.00,WUHU21623XXSP,2013-04-25 17:55:00,
2013-04-25 13:00:00,40.5,25.9,29.97,WNW,303,7.3,10.5,56,0.00,,,0.00,WUHU21623XXSP,2013-04-25 18:00:00,
2013-04-25 13:05:00,39.7,25.2,29.97,WNW,292,8.1,10.5,56,0.00,,,0.00,WUHU21623XXSP,2013-04-25 18:05:00,
2013-04-25 13:10:00,39.6,25.0,29.97,West,278,3.8,9.4,56,0.00,,,0.00,WUHU21623XXSP,2013-04-25 18:10:00,
2013-04-25 13:15:00,39.7,25.6,29.97,NW,307,6.0,11.4,57,0.00,,,0.00,WUHU21623XXSP,2013-04-25 18:15:00,
2013-04-25 13:20:00,39.6,25.0,29.97,WNW,289,5.5,11.4,56,0.00,,,0.00,WUHU21623XXSP,2013-04-25 18:20:00,
2013-04-25 13:25:00,39.7,24.8,29.97,WSW,247,5.6,9.2,55,0.00,,,0.00,WUHU21623XXSP,2013-04-25 18:25:00,
2013-04-25 13:30:00,39.4,24.9,29.98,West,274,4.4,9.2,56,0.00,,,0.00,WUHU21623XXSP,2013-04-25 18:30:00,
2013-04-25 13:35:00,39.6,25.5,29.97,West,279,5.3,10.5,57,0.00,,,0.00,WUHU21623XXSP,2013-04-25 18:35:00,
2013-04-25 13:40:00,39.4,24.4,29.98,West,270,9.2,10.5,55,0.00,,,0.00,WUHU21623XXSP,2013-04-25 18:40:00,
2013-04-25 13:45:00,40.1,25.1,29.98,West,279,5.2,11.4,55,0.00,,,0.00,WUHU21623XXSP,2013-04-25 18:45:00,
2013-04-25 13:50:00,39.7,24.8,29.98,West,270,5.0,11.4,55,0.00,,,0.00,WUHU21623XXSP,2013-04-25 18:50:00,
2013-04-25 13:55:00,39.9,24.5,29.98,West,272,5.6,9.8,54,0.00,,,0.00,WUHU21623XXSP,2013-04-25 18:55:00,
2013-04-25 14:00:00,40.1,24.7,29.98,West,270,6.0,10.1,54,0.00,,,0.00,WUHU21623XXSP,2013-04-25 19:00:00,
2013-04-25 14:05:00,40.1,24.2,29.97,WSW,247,7.8,10.1,53,0.00,,,0.00,WUHU21623XXSP,2013-04-25 19:05:00,
2013-04-25 14:10:00,39.9,24.5,29.97,West,270,6.5,8.3,54,0.00,,,0.00,WUHU21623XXSP,2013-04-25 19:10:00,
2013-04-25 14:15:00,39.9,24.5,29.97,WNW,291,6.7,13.6,54,0.00,,,0.00,WUHU21623XXSP,2013-04-25 19:15:00,
2013-04-25 14:20:00,39.9,23.6,29.98,West,277,5.0,13.6,52,0.00,,,0.00,WUHU21623XXSP,2013-04-25 19:20:00,
2013-04-25 14:25:00,41.0,25.1,29.97,West,274,4.3,8.9,53,0.00,,,0.00,WUHU21623XXSP,2013-04-25 19:25:00,
2013-04-25 14:30:00,40.8,24.0,29.97,West,270,4.0,8.1,51,0.00,,,0.00,WUHU21623XXSP,2013-04-25 19:30:00,
2013-04-25 14:35:00,41.2,24.3,29.97,WNW,300,5.1,8.7,51,0.00,,,0.00,WUHU21623XXSP,2013-04-25 19:35:00,
2013-04-25 14:40:00,41.0,24.6,29.97,West,280,3.6,10.7,52,0.00,,,0.00,WUHU21623XXSP,2013-04-25 19:40:00,
2013-04-25 14:45:00,41.2,24.8,29.97,NW,315,9.4,13.0,52,0.00,,,0.00,WUHU21623XXSP,2013-04-25 19:45:00,
2013-04-25 14:50:00,41.7,25.3,29.97,WSW,256,4.0,13.0,52,0.00,,,0.00,WUHU21623XXSP,2013-04-25 19:50:00,
2013-04-25 14:55:00,41.5,25.6,29.96,WNW,291,4.0,7.6,53,0.00,,,0.00,WUHU21623XXSP,2013-04-25 19:55:00,
2013-04-25 15:00:00,41.9,25.1,29.96,WNW,291,3.1,8.3,51,0.00,,,0.00,WUHU21623XXSP,2013-04-25 20:00:00,
2013-04-25 15:05:00,42.4,24.1,29.96,West,261,2.6,8.3,48,0.00,,,0.00,WUHU21623XXSP,2013-04-25 20:05:00,
2013-04-25 15:10:00,41.7,23.9,29.96,NW,315,3.1,7.6,49,0.00,,,0.00,WUHU21623XXSP,2013-04-25 20:10:00,
2013-04-25 15:15:00,42.1,24.3,29.96,West,270,2.7,7.6,49,0.00,,,0.00,WUHU21623XXSP,2013-04-25 20:15:00,
2013-04-25 15:20:00,41.5,24.3,29.96,WSW,253,2.5,6.0,50,0.00,,,0.00,WUHU21623XXSP,2013-04-25 20:20:00,
2013-04-25 15:25:00,42.1,24.3,29.96,WNW,302,5.7,11.9,49,0.00,,,0.00,WUHU21623XXSP,2013-04-25 20:25:00,
2013-04-25 15:30:00,42.1,24.3,29.96,WSW,250,4.5,11.9,49,0.00,,,0.00,WUHU21623XXSP,2013-04-25 20:30:00,
2013-04-25 15:35:00,42.4,24.1,29.96,WNW,288,5.1,11.2,48,0.00,,,0.00,WUHU21623XXSP,2013-04-25 20:35:00,
2013-04-25 15:40:00,42.4,25.2,29.96,WSW,247,3.7,11.0,50,0.00,,,0.00,WUHU21623XXSP,2013-04-25 20:40:00,
2013-04-25 15:45:00,42.4,25.2,29.96,WSW,247,3.8,9.2,50,0.00,,,0.00,WUHU21623XXSP,2013-04-25 20:45:00,
2013-04-25 15:50:00,42.3,24.4,29.95,WSW,258,3.0,9.2,49,0.00,,,0.00,WUHU21623XXSP,2013-04-25 20:50:00,
2013-04-25 15:55:00,42.4,25.2,29.95,WSW,247,6.7,6.7,50,0.00,,,0.00,WUHU21623XXSP,2013-04-25 20:55:00,
2013-04-25 16:00:00,42.4,24.1,29.95,WSW,247,4.5,8.5,48,0.00,,,0.00,WUHU21623XXSP,2013-04-25 21:00:00,
2013-04-25 16:05:00,42.3,24.4,29.96,West,270,2.2,10.3,49,0.00,,,0.00,WUHU21623XXSP,2013-04-25 21:05:00,
2013-04-25 16:10:00,41.7,23.9,29.95,WSW,247,5.6,10.3,49,0.00,,,0.00,WUHU21623XXSP,2013-04-25 21:10:00,
2013-04-25 16:15:00,43.0,25.1,29.95,NW,305,3.7,7.6,49,0.00,,,0.00,WUHU21623XXSP,2013-04-25 21:15:00,
2013-04-25 16:20:00,43.0,24.1,29.95,West,274,2.8,7.6,47,0.00,,,0.00,WUHU21623XXSP,2013-04-25 21:20:00,
2013-04-25 16:25:00,43.0,23.0,29.95,South,180,4.0,7.6,45,0.00,,,0.00,WUHU21623XXSP,2013-04-25 21:25:00,
2013-04-25 16:30:00,42.1,21.6,29.95,SSW,203,2.3,7.6,44,0.00,,,0.00,WUHU21623XXSP,2013-04-25 21:30:00,
2013-04-25 16:35:00,43.0,21.9,29.96,WSW,247,5.4,8.9,43,0.00,,,0.00,WUHU21623XXSP,2013-04-25 21:35:00,
2013-04-25 16:40:00,42.6,22.1,29.95,WSW,247,5.0,8.9,44,0.00,,,0.00,WUHU21623XXSP,2013-04-25 21:40:00,
2013-04-25 16:45:00,43.0,21.9,29.95,WSW,247,7.4,8.9,43,0.00,,,0.00,WUHU21623XXSP,2013-04-25 21:45:00,
2013-04-25 16:50:00,43.3,22.8,29.95,West,270,4.5,7.8,44,0.00,,,0.00,WUHU21623XXSP,2013-04-25 21:50:00,
2013-04-25 16:55:00,42.3,21.8,29.95,West,270,0.9,7.8,44,0.00,,,0.00,WUHU21623XXSP,2013-04-25 21:55:00,
2013-04-25 17:00:00,42.6,21.6,29.95,WSW,247,1.1,6.7,43,0.00,,,0.00,WUHU21623XXSP,2013-04-25 22:00:00,
2013-04-25 17:05:00,44.2,23.6,29.96,WSW,247,8.5,8.5,44,0.00,,,0.00,WUHU21623XXSP,2013-04-25 22:05:00,
2013-04-25 17:10:00,43.9,22.7,29.95,WSW,247,3.7,8.5,43,0.00,,,0.00,WUHU21623XXSP,2013-04-25 22:10:00,
2013-04-25 17:15:00,44.1,21.8,29.95,WSW,247,5.1,10.7,41,0.00,,,0.00,WUHU21623XXSP,2013-04-25 22:15:00,
2013-04-25 17:20:00,43.3,21.7,29.95,WSW,247,8.1,11.4,42,0.00,,,0.00,WUHU21623XXSP,2013-04-25 22:20:00,
2013-04-25 17:25:00,42.8,21.7,29.95,WSW,242,4.2,11.4,43,0.00,,,0.00,WUHU21623XXSP,2013-04-25 22:25:00,
2013-04-25 17:30:00,43.0,21.4,29.95,WSW,247,3.8,9.4,42,0.00,,,0.00,WUHU21623XXSP,2013-04-25 22:30:00,
2013-04-25 17:35:00,42.6,20.5,29.95,WSW,247,4.2,9.6,41,0.00,,,0.00,WUHU21623XXSP,2013-04-25 22:35:00,
2013-04-25 17:40:00,42.6,21.0,29.95,WSW,247,7.4,9.8,42,0.00,,,0.00,WUHU21623XXSP,2013-04-25 22:40:00,
2013-04-25 17:45:00,43.0,24.6,29.95,WSW,247,5.6,9.8,48,0.00,,,0.00,WUHU21623XXSP,2013-04-25 22:45:00,
2013-04-25 17:50:00,43.0,20.8,29.95,WSW,247,3.6,11.2,41,0.00,,,0.00,WUHU21623XXSP,2013-04-25 22:50:00,
2013-04-25 17:55:00,42.6,21.0,29.95,South,180,8.1,11.2,42,0.00,,,0.00,WUHU21623XXSP,2013-04-25 22:55:00,
2013-04-25 18:00:00,42.6,20.0,29.95,SW,225,8.3,10.1,40,0.00,,,0.00,WUHU21623XXSP,2013-04-25 23:00:00,
2013-04-25 18:05:00,42.4,19.1,29.95,SW,223,6.0,10.5,39,0.00,,,0.00,WUHU21623XXSP,2013-04-25 23:05:00,
2013-04-25 18:10:00,42.6,20.0,29.95,WSW,247,2.9,10.5,40,0.00,,,0.00,WUHU21623XXSP,2013-04-25 23:10:00,
2013-04-25 18:15:00,42.6,19.3,29.95,WSW,247,4.9,9.4,39,0.00,,,0.00,WUHU21623XXSP,2013-04-25 23:15:00,
2013-04-25 18:20:00,42.4,19.8,29.95,SSW,210,2.4,9.4,40,0.00,,,0.00,WUHU21623XXSP,2013-04-25 23:20:00,
2013-04-25 18:25:00,42.4,19.8,29.95,SSE,157,7.2,7.2,40,0.00,,,0.00,WUHU21623XXSP,2013-04-25 23:25:00,
2013-04-25 18:30:00,42.4,19.8,29.95,South,187,5.6,8.3,40,0.00,,,0.00,WUHU21623XXSP,2013-04-25 23:30:00,
2013-04-25 18:35:00,42.4,20.3,29.95,SW,225,6.5,8.3,41,0.00,,,0.00,WUHU21623XXSP,2013-04-25 23:35:00,
2013-04-25 18:40:00,42.4,21.4,29.95,SSW,207,2.1,8.3,43,0.00,,,0.00,WUHU21623XXSP,2013-04-25 23:40:00,
2013-04-25 18:45:00,42.4,20.3,29.95,SSW,194,5.8,8.3,41,0.00,,,0.00,WUHU21623XXSP,2013-04-25 23:45:00,
2013-04-25 18:50:00,42.4,20.3,29.95,SW,217,2.8,8.7,41,0.00,,,0.00,WUHU21623XXSP,2013-04-25 23:50:00,
2013-04-25 18:55:00,42.4,20.3,29.95,SSW,202,1.8,8.7,41,0.00,,,0.00,WUHU21623XXSP,2013-04-25 23:55:00,
2013-04-25 19:00:00,42.4,20.3,29.95,SSW,202,1.8,1.8,41,0.00,,,0.00,WUHU21623XXSP,2013-04-26 00:00:00,